Stations météo

Publicité
Garmisch-Partenkirchen, Allemagne (10963): Température de l'air & dewpoint: 19.06.2018 02:00:00 - 25.06.2018 02:00:00 (CEST)Garmisch-Partenkirchen, Allemagne (10963): Température de l'air 5cm & Température de l'air -5cm: 19.06.2018 02:00:00 - 25.06.2018 02:00:00 (CEST)Garmisch-Partenkirchen, Allemagne (10963): Température de l'air -20cm & Température de l'air -100cm: 19.06.2018 02:00:00 - 25.06.2018 02:00:00 (CEST)Garmisch-Partenkirchen, Allemagne (10963): Vitesse du vent & gusts: 19.06.2018 02:00:00 - 25.06.2018 02:00:00 (CEST)Garmisch-Partenkirchen, Allemagne (10963): Direction du vent: 19.06.2018 02:00:00 - 25.06.2018 02:00:00 (CEST)Garmisch-Partenkirchen, Allemagne (10963): reduced air pressure: 19.06.2018 02:00:00 - 25.06.2018 02:00:00 (CEST)Garmisch-Partenkirchen, Allemagne (10963): visibility: 19.06.2018 02:00:00 - 25.06.2018 02:00:00 (CEST)Garmisch-Partenkirchen, Allemagne (10963): Ensoleillement: 19.06.2018 02:00:00 - 25.06.2018 02:00:00 (CEST)Garmisch-Partenkirchen, Allemagne (10963): Quantités de précipitations: 19.06.2018 02:00:00 - 25.06.2018 02:00:00 (CEST)
Date & Time tt [°C] td [°C] tt 5cm [°C] tt -5cm [°C] tt -20cm [°C] tt -100cm [°C] ff [km/h] ff [knt] fx [km/h] fx [knt] dd ppp [hPa] vv [km] sd [min] rr [mm]
25.06.2018 02:00:00 - - - - - - - - - - - - - - -
25.06.2018 01:00:00 12,0 11,3 12,2 18,4 20,9 17,0 3 1 6 4 WSW 1020,0 7 0 0,1
25.06.2018 00:00:00 12,1 11,5 12,4 18,9 21,3 17,0 4 2 7 4 S 1020,1 4,5 0 0,1
24.06.2018 23:00:00 12,4 11,6 12,7 19,6 21,8 17,0 4 2 8 4 SW 1020,1 6 0 0,2
24.06.2018 22:00:00 13,0 11,9 13,1 20,6 22,2 17,0 6 4 11 6 WSW 1019,8 6 0 0,8
24.06.2018 21:00:00 14,8 10,0 14,8 21,9 22,6 17,0 3 1 8 5 SSW 1018,5 45 0 0,0
24.06.2018 20:00:00 16,5 8,5 16,2 22,9 22,9 17,0 4 2 18 10 NNE 1017,8 58 0 0,0
24.06.2018 19:00:00 16,7 8,0 17,2 24,3 23,1 17,0 11 6 25 14 NE 1017,4 70 0 0,0
24.06.2018 18:00:00 17,3 8,1 18,9 25,4 23,1 17,0 10 5 27 15 NNE 1017,4 66 5 0,0
24.06.2018 17:00:00 16,9 9,1 18,0 26,5 23,0 17,0 11 6 29 15 NNE 1017,6 56 7 0,0
24.06.2018 16:00:00 18,6 9,0 23,7 28,0 22,5 17,0 12 7 28 15 NE 1017,0 56 27 0,0
24.06.2018 15:00:00 18,9 9,5 25,3 27,7 22,0 17,0 13 7 30 16 NE 1017,1 44 30 0,0
24.06.2018 14:00:00 18,0 8,5 21,9 27,1 21,4 17,0 14 8 32 17 NE 1017,8 50 18 0,0
24.06.2018 13:00:00 18,4 9,7 23,6 27,3 20,6 17,0 14 8 33 18 NE 1017,9 31 40 0,0
24.06.2018 12:00:00 17,0 8,6 19,6 26,1 19,8 17,0 14 8 28 15 NNE 1018,6 51 42 0,0
24.06.2018 11:00:00 17,3 8,2 21,4 24,1 19,0 17,0 9 5 17 9 NE 1018,8 30 60 0,0
24.06.2018 10:00:00 16,3 7,7 20,1 20,9 18,5 17,0 6 3 12 6 ENE 1019,6 40 60 0,0
24.06.2018 09:00:00 15,0 7,4 16,0 18,1 18,4 17,0 3 1 9 5 ESE 1020,7 34 42 0,0
24.06.2018 08:00:00 11,7 9,0 12,4 16,3 18,6 17,0 0 0 5 3 N 1022,0 34 0 0,0
24.06.2018 07:00:00 11,1 8,7 11,6 15,9 18,8 17,0 2 1 6 3 NNE 1022,1 33 0 0,0
24.06.2018 06:00:00 10,2 8,8 10,2 16,0 19,2 17,0 3 2 6 3 SW 1022,3 32 0 0,0
24.06.2018 05:00:00 10,5 8,9 10,5 16,4 19,5 17,0 3 1 6 3 SW 1022,3 29 0 0,0
24.06.2018 04:00:00 10,9 9,0 10,9 16,9 19,9 17,0 2 1 5 3 NE 1022,5 33 0 0,0
24.06.2018 03:00:00 11,1 9,2 11,0 17,4 20,3 17,0 2 1 5 3 WNW 1022,8 34 0 0,0
24.06.2018 02:00:00 11,5 9,1 11,2 18,0 20,7 17,0 2 1 5 3 WSW 1023,1 22 0 0,0
24.06.2018 01:00:00 11,9 8,5 11,9 18,5 21,1 17,0 2 1 5 3 W 1023,3 48 0 0,0
24.06.2018 00:00:00 11,9 8,2 12,2 19,1 21,6 17,0 2 1 7 4 WNW 1023,5 50 0 0,0
23.06.2018 23:00:00 13,2 8,0 12,1 20,0 22,1 17,0 3 2 10 5 W 1023,0 61 0 0,0
23.06.2018 22:00:00 14,4 6,5 14,2 21,0 22,6 17,1 2 1 22 12 N 1022,6 68 0 0,0
23.06.2018 21:00:00 15,0 6,2 15,1 22,5 23,0 17,1 11 6 27 14 NE 1022,0 70 0 0,0
23.06.2018 20:00:00 16,0 5,9 16,7 23,9 23,3 17,1 8 4 25 14 NNE 1021,5 70 3 0,0
23.06.2018 19:00:00 16,8 5,6 18,1 25,7 23,5 17,1 11 6 26 14 NNE 1020,8 70 1 0,0
23.06.2018 18:00:00 17,2 5,9 18,4 27,9 23,2 17,1 9 5 23 12 NNE 1020,8 67 11 0,0
23.06.2018 17:00:00 18,3 6,0 24,3 29,5 22,7 17,1 8 5 20 11 N 1020,5 49 43 0,0
23.06.2018 16:00:00 17,9 6,5 23,9 29,5 22,0 17,1 11 6 28 15 NNE 1021,1 40 53 0,0
23.06.2018 15:00:00 16,7 5,7 21,2 27,6 21,3 17,1 13 7 29 16 NNE 1021,7 49 17 0,0
23.06.2018 14:00:00 17,3 7,0 22,7 28,9 20,2 17,1 17 9 30 16 NE 1021,7 31 59 0,0
23.06.2018 13:00:00 17,4 7,3 23,8 26,4 19,2 17,1 11 6 31 17 NE 1021,9 39 60 0,0
23.06.2018 12:00:00 15,7 5,8 20,6 24,2 18,2 17,1 16 9 31 17 NE 1022,9 25 53 0,0
23.06.2018 11:00:00 15,3 6,7 19,5 21,3 17,5 17,1 12 7 24 13 NE 1023,2 40 58 0,0
23.06.2018 10:00:00 13,6 4,7 14,7 18,4 17,1 17,1 4 2 13 7 NE 1024,2 62 58 0,0
23.06.2018 09:00:00 12,6 4,5 14,1 16,2 16,9 17,1 8 4 14 8 E 1024,8 35 60 0,0
23.06.2018 08:00:00 11,3 5,7 10,5 14,0 17,1 17,1 3 1 6 3 SE 1025,4 70 60 0,0
23.06.2018 07:00:00 8,7 6,4 6,4 13,0 17,5 17,1 3 1 6 4 S 1026,2 42 21 0,0
23.06.2018 06:00:00 6,5 5,5 5,6 13,4 17,9 17,1 4 2 6 3 SW 1026,8 40 0 0,0
23.06.2018 05:00:00 7,3 6,1 6,9 14,1 18,3 17,1 3 2 8 4 WSW 1026,6 45 0 0,0
23.06.2018 04:00:00 8,1 6,2 7,8 14,7 18,7 17,1 4 2 8 4 SW 1026,6 59 0 0,0
23.06.2018 03:00:00 8,7 6,6 8,6 15,3 19,1 17,0 2 1 7 4 WSW 1026,6 70 0 0,0
23.06.2018 02:00:00 9,3 7,0 9,3 15,9 19,5 17,0 4 2 6 4 SW 1026,5 70 0 0,0
23.06.2018 01:00:00 10,0 7,2 9,9 16,4 20,0 17,0 3 2 6 3 WSW 1026,5 66 0 0,0
23.06.2018 00:00:00 11,1 5,8 10,7 17,0 20,4 17,0 2 1 9 5 WNW 1026,3 70 0 0,0
22.06.2018 23:00:00 11,4 5,9 11,0 17,7 20,9 17,0 2 1 8 4 E 1026,0 70 0 0,0
22.06.2018 22:00:00 12,3 4,2 12,0 18,5 21,4 17,0 5 3 14 7 E 1025,5 70 0 0,0
22.06.2018 21:00:00 12,8 4,5 12,6 19,5 21,9 17,0 6 3 16 8 NE 1024,6 70 0 0,0
22.06.2018 20:00:00 13,6 3,9 13,7 21,0 22,3 17,0 8 5 32 17 N 1024,1 70 1 0,0
22.06.2018 19:00:00 14,1 4,3 15,2 22,9 22,5 17,0 15 8 35 19 NE 1023,1 70 35 0,0
22.06.2018 18:00:00 15,5 3,7 16,5 23,3 22,6 17,0 9 5 28 15 N 1022,2 70 11 0,0
22.06.2018 17:00:00 17,1 1,9 21,3 24,1 22,6 17,0 7 4 24 13 NW 1021,2 70 18 0,0
22.06.2018 16:00:00 16,9 2,6 19,0 24,7 22,6 17,0 11 6 27 14 NNW 1020,9 70 8 0,0
22.06.2018 15:00:00 17,2 3,8 20,9 26,1 22,2 16,9 7 4 21 12 NW 1020,3 70 15 0,0
22.06.2018 14:00:00 17,7 2,5 20,3 27,5 21,4 16,9 9 5 29 16 WSW 1020,2 70 45 0,0
22.06.2018 13:00:00 16,8 6,6 22,7 25,2 20,6 16,9 5 3 25 14 NNE 1020,8 55 42 0,0
22.06.2018 12:00:00 16,2 6,9 21,3 24,0 19,9 16,9 10 5 19 10 ENE 1021,0 29 58 0,0
22.06.2018 11:00:00 12,9 6,0 15,8 20,3 19,6 16,9 9 5 17 9 NE 1022,3 52 30 0,0
22.06.2018 10:00:00 11,8 5,8 12,6 18,8 19,6 16,8 4 2 16 8 NNE 1022,4 59 0 0,0
22.06.2018 09:00:00 11,1 4,4 11,7 18,1 19,6 16,8 7 4 16 9 NNE 1022,9 63 10 0,0
22.06.2018 08:00:00 10,7 6,0 11,1 17,4 19,8 16,8 6 3 11 6 NE 1023,2 52 32 0,0
22.06.2018 07:00:00 9,3 8,0 10,1 16,7 20,2 16,8 2 1 13 7 SW 1023,4 14 0 0,0
22.06.2018 06:00:00 9,7 8,6 9,7 17,0 20,5 16,7 5 3 11 6 ENE 1023,4 21 0 0,0
22.06.2018 05:00:00 10,5 9,7 10,7 17,3 20,9 16,7 3 2 9 5 N 1022,9 18 0 0,0
22.06.2018 04:00:00 10,6 10,1 11,0 17,6 21,4 16,7 3 2 9 5 SW 1022,4 3,0 0 0,6
22.06.2018 03:00:00 10,8 9,9 11,3 18,0 22,0 16,7 4 2 21 11 NE 1022,2 3,2 0 1,0
22.06.2018 02:00:00 11,7 9,5 11,1 18,7 22,5 16,6 14 8 40 21 ENE 1021,1 32 0 2,7
22.06.2018 01:00:00 14,3 13,6 14,5 19,9 23,1 16,6 5 3 16 8 E 1019,0 6 0 2,2
22.06.2018 00:00:00 14,8 14,0 14,8 20,3 23,9 16,6 7 4 18 10 ENE 1018,3 2,6 0 8,8
21.06.2018 23:00:00 15,8 14,8 15,6 22,6 24,7 16,6 10 5 27 15 ENE 1017,0 6 0 1,5
21.06.2018 22:00:00 16,8 16,3 17,3 23,5 25,3 16,6 5 3 7 4 WSW 1016,7 4,0 0 0,0
21.06.2018 21:00:00 17,0 16,3 17,3 24,2 25,9 16,5 3 2 42 23 WSW 1015,9 14 0 9,4
21.06.2018 20:00:00 21,5 13,2 21,2 28,3 26,1 16,5 14 8 39 21 NE 1013,2 60 15 0,0
21.06.2018 19:00:00 23,2 14,0 24,9 29,8 26,1 16,5 10 6 23 12 E 1012,1 66 26 0,0
21.06.2018 18:00:00 25,5 16,8 28,7 29,6 26,1 16,5 3 2 11 6 ENE 1011,0 54 19 0,0
21.06.2018 17:00:00 23,9 17,1 25,9 29,9 26,1 16,5 3 2 19 10 NW 1011,7 53 6 0,0
21.06.2018 16:00:00 23,9 15,1 26,5 30,9 26,0 16,5 6 3 29 16 NNE 1012,1 62 8 0,1
21.06.2018 15:00:00 25,2 14,3 25,8 32,7 25,4 16,5 9 5 29 16 SSW 1011,2 60 18 0,0
21.06.2018 14:00:00 26,8 13,4 30,1 33,4 24,5 16,5 13 7 30 16 ENE 1011,1 70 33 0,0
21.06.2018 13:00:00 27,5 12,8 32,9 33,0 23,3 16,5 11 6 24 13 NE 1011,6 65 48 0,0
21.06.2018 12:00:00 27,0 12,6 29,2 31,2 22,2 16,5 9 5 22 12 W 1012,2 64 56 0,0
21.06.2018 11:00:00 27,5 11,5 30,5 27,8 21,3 16,4 9 5 20 11 W 1012,5 34 60 0,0
21.06.2018 10:00:00 24,6 13,0 28,2 24,3 20,7 16,4 3 2 8 4 ESE 1013,9 60 59 0,0
21.06.2018 09:00:00 22,7 14,3 23,9 21,3 20,5 16,4 3 2 5 3 SSE 1014,9 62 60 0,0
21.06.2018 08:00:00 19,3 14,3 17,0 18,9 20,6 16,4 4 2 5 3 SSE 1016,5 43 60 0,0
21.06.2018 07:00:00 15,1 13,1 12,9 17,8 21,0 16,4 2 1 6 3 SSE 1018,0 38 24 0,0
21.06.2018 06:00:00 12,4 11,9 11,5 18,0 21,5 16,4 2 1 7 4 NW 1018,6 42 0 0,0
21.06.2018 05:00:00 12,1 11,7 11,5 18,6 22,0 16,4 0 0 6 3 N 1018,9 15 0 0,0
21.06.2018 04:00:00 12,8 12,4 12,2 19,3 22,6 16,4 3 2 6 3 WSW 1019,1 32 0 0,0
21.06.2018 03:00:00 13,1 12,6 12,0 20,1 23,1 16,4 2 1 6 3 W 1019,3 25 0 0,0
21.06.2018 02:00:00 13,7 13,0 13,1 21,0 23,7 16,4 2 1 9 5 WSW 1019,6 29 0 0,0
21.06.2018 01:00:00 14,4 13,5 13,6 22,0 24,3 16,4 3 2 7 4 SW 1019,6 40 0 0,0
21.06.2018 00:00:00 15,1 13,9 14,5 23,2 25,0 16,4 3 2 8 4 SW 1019,8 39 0 0,0
20.06.2018 23:00:00 16,7 14,6 15,2 24,6 25,6 16,4 3 1 7 4 SW 1019,4 58 0 0,0
20.06.2018 22:00:00 18,0 15,0 16,7 26,3 26,1 16,4 0 0 9 5 N 1018,7 61 0 0,0
20.06.2018 21:00:00 21,3 15,0 19,5 28,3 26,5 16,4 3 1 16 9 WNW 1017,2 70 0 0,0
20.06.2018 20:00:00 24,6 12,4 24,8 30,7 26,7 16,4 8 4 21 12 NE 1016,0 70 45 0,0
20.06.2018 19:00:00 25,4 12,6 27,4 32,9 26,4 16,4 10 5 25 13 NNE 1015,7 70 55 0,0
20.06.2018 18:00:00 26,5 13,3 30,5 34,1 25,9 16,4 13 7 26 14 NE 1015,5 41 60 0,0
20.06.2018 17:00:00 26,5 13,5 31,1 34,6 25,2 16,4 15 8 34 18 NE 1015,9 38 60 0,0
20.06.2018 16:00:00 27,1 14,5 33,2 34,5 24,2 16,4 13 7 32 17 NE 1015,8 50 60 0,0
20.06.2018 15:00:00 26,3 14,2 31,7 33,6 23,1 16,4 16 9 32 18 NE 1016,3 28 60 0,0
20.06.2018 14:00:00 25,7 14,4 31,3 32,1 22,0 16,4 16 8 29 16 NNE 1016,9 33 60 0,0
20.06.2018 13:00:00 25,1 13,9 30,0 30,3 20,8 16,4 13 7 28 15 NE 1017,7 31 60 0,0
20.06.2018 12:00:00 24,5 13,8 29,4 28,0 19,7 16,4 10 5 18 10 NE 1018,2 46 60 0,0
20.06.2018 11:00:00 23,9 12,7 26,0 25,1 18,7 16,4 6 3 11 6 S 1018,8 34 60 0,0
20.06.2018 10:00:00 22,2 12,4 24,7 21,9 18,1 16,4 3 2 8 5 ENE 1019,7 44 60 0,0
20.06.2018 09:00:00 20,2 12,1 20,4 18,8 17,8 16,4 2 1 6 3 ENE 1020,9 56 60 0,0
20.06.2018 08:00:00 17,3 12,7 15,0 16,2 17,9 16,4 2 1 6 3 S 1022,2 33 60 0,0
20.06.2018 07:00:00 13,5 12,1 11,2 14,9 18,2 16,4 2 1 9 5 SSW 1023,7 25 25 0,0
20.06.2018 06:00:00 10,7 10,3 10,2 15,1 18,6 16,4 4 2 8 4 SW 1024,8 8 0 0,0
20.06.2018 05:00:00 10,9 10,7 10,1 15,6 19,0 16,4 5 3 9 5 SSW 1024,7 11 0 0,0
20.06.2018 04:00:00 11,2 10,7 10,5 16,2 19,4 16,4 3 2 9 5 WSW 1024,7 8 0 0,0
20.06.2018 03:00:00 11,7 11,2 11,0 16,8 19,9 16,4 4 2 7 4 SSW 1024,9 21 0 0,0
20.06.2018 02:00:00 12,7 12,0 11,8 17,6 20,3 16,4 4 2 11 6 SSW 1024,9 36 0 0,0
20.06.2018 01:00:00 13,6 12,7 13,0 18,4 20,8 16,4 5 3 10 6 SW 1024,7 28 0 0,0
20.06.2018 00:00:00 14,1 13,0 13,1 19,2 21,3 16,4 4 2 8 5 SW 1024,6 33 0 0,0
19.06.2018 23:00:00 14,9 13,4 13,7 20,1 21,8 16,4 2 1 6 3 WSW 1024,4 43 0 0,0
19.06.2018 22:00:00 16,2 13,7 14,9 21,4 22,2 16,4 2 1 4 2 W 1023,7 47 0 0,0
19.06.2018 21:00:00 19,2 13,4 17,1 23,0 22,5 16,4 2 1 16 9 NNW 1022,4 70 0 0,0
19.06.2018 20:00:00 21,6 11,9 22,9 24,9 22,6 16,4 7 4 19 11 NNE 1021,6 70 50 0,0
19.06.2018 19:00:00 22,0 11,9 24,0 25,5 22,6 16,4 8 4 20 11 NNE 1021,4 70 31 0,0
19.06.2018 18:00:00 22,6 12,4 22,9 27,1 22,4 16,5 9 5 22 12 NNE 1021,3 70 43 0,0
19.06.2018 17:00:00 23,5 12,6 28,8 27,2 22,0 16,5 10 5 25 14 NNE 1021,1 38 34 0,0
19.06.2018 16:00:00 22,3 11,5 24,4 28,6 21,3 16,5 11 6 24 13 NNE 1021,8 63 46 0,0
19.06.2018 15:00:00 23,2 12,4 29,8 26,5 20,6 16,5 10 5 23 13 NE 1021,7 44 26 0,0
19.06.2018 14:00:00 21,4 12,2 23,1 25,7 20,0 16,5 9 5 24 13 NE 1022,6 68 14 0,0
19.06.2018 13:00:00 20,8 12,0 23,1 24,7 19,4 16,5 9 5 22 12 NE 1022,9 55 16 0,0
19.06.2018 12:00:00 19,6 12,0 20,7 23,9 18,7 16,5 11 6 24 13 NNE 1023,3 59 19 0,0
19.06.2018 11:00:00 20,0 10,4 22,9 23,0 18,0 16,5 5 3 13 7 E 1023,5 35 57 0,0
19.06.2018 10:00:00 18,9 12,1 20,8 19,1 17,6 16,5 5 3 8 4 E 1024,2 57 21 0,0
19.06.2018 09:00:00 17,5 11,6 17,7 17,7 17,4 16,5 4 2 8 4 S 1024,9 43 31 0,0
19.06.2018 08:00:00 14,3 12,3 13,7 16,2 17,5 16,5 2 1 6 3 W 1025,5 34 5 0,0
19.06.2018 07:00:00 12,8 11,7 12,7 15,4 17,6 16,5 3 2 8 4 S 1025,6 28 2 0,0
19.06.2018 06:00:00 11,8 11,4 11,2 15,3 17,9 16,5 2 1 5 3 WSW 1025,6 11 0 0,0
19.06.2018 05:00:00 12,1 11,7 12,0 15,7 18,1 16,5 0 0 5 3 N 1025,1 7 0 0,0
19.06.2018 04:00:00 12,4 12,0 12,2 15,9 18,4 16,5 0 0 7 4 N 1024,7 13 0 0,0
19.06.2018 03:00:00 11,8 11,5 11,8 15,9 18,8 16,5 3 1 5 3 WSW 1025,0 12 0 0,0
19.06.2018 02:00:00 11,2 10,9 10,4 16,1 19,2 16,5 3 2 7 4 SSW 1025,2 12 0 0,0

tt = Température de l'air
td = dewpoint
tt 5cm = Température de l'air 5cm
tt -5cm = Température de l'air -5cm
tt -20cm = Température de l'air -20cm
tt -100cm = Température de l'air -100cm
ff = Vitesse du vent
fx = gusts
dd = Direction du vent
ppp = reduced air pressure
vv = visibility
sd = Ensoleillement
rr = Quantités de précipitations

stations d'obs. à proximité